sat.trackr.live / text

‹ back to catalog

NUSAT-39 (TIKVAH ALPER)

NORAD 56201 · 2023-054Z

PAYLOAD ACTIVE UNKNOWN

§ Identity

Operator
Country
ARGN
Launch date
2023-04-15
Launch site
AFWTR
Launch vehicle
Mass (kg)
RCS (m²)

External: N2YO · Heavens-Above · Gunter

§ Orbital elements

Epoch: 2026-09-21T22:41:03.535584Z

Period
92.82 min
Inclination
97.3028°
Eccentricity
0.0006291
Mean motion
15.51413891 rev/d
Perigee alt
408.3 km
Apogee alt
416.9 km
Semi-major
6,790.7 km
B*
4.0362e-4
RAAN
175.8769°
Arg perigee
68.0919°
Mean anomaly
292.1002°
Rev number
19,343

§ Raw data

NUSAT-39 (TIKVAH ALPER)1 56201U 23054Z   26264.94517981  .00023738  00000+0  40362-3 0  99922 56201  97.3028 175.8769 0006291  68.0919 292.1002 15.51413891193433

JSON: /api/v1/satellites/56201 · /tle

For live sub-satellite position, see the globe view (requires WebGL).

§ Visibility from observer

Set your observer location to see the next 7 days of passes ≥ 10°. The values pass through the URL so the page stays shareable.

No JS? Fill the form by hand. The geolocation button needs JavaScript.